START_TIME,STEP,MOV.,M29,t_acc.,H22,t_acc.,H26,t_acc.,H30,t_acc.
1979-03-02 18:00:21.380 ,0,1,0.,24.0,0.,24.0,0.,24.0,0.,24.0
1979-03-02 18:00:45.380 ,0,1,0.,24.0,0.,24.0,0.,24.0,0.,24.0
1979-03-02 18:01:09.380 ,1,1,0.,24.0,0.,24.0,0.,24.0,0.,24.0
1979-03-02 18:01:33.380 ,2,1,0.,24.0,0.,24.0,0.,24.0,0.,24.0
1979-03-02 18:01:57.380 ,3,1,0.,24.0,0.,24.0,0.,24.0,0.,24.0
1979-03-02 18:02:21.380 ,4,1,0.,24.0,0.,24.0,0.,24.0,0.,24.0
1979-03-02 18:02:45.380 ,5,1,0.,24.0,0.,24.0,0.,24.0,0.,24.0
1979-03-02 18:03:09.380 ,6,1,0.,24.0,0.,24.0,0.,24.0,0.,24.0
1979-03-02 18:03:33.380 ,7,1,0.,24.0,0.,24.0,0.,24.0,0.,24.0
1979-03-02 18:03:57.380 ,7,1,0.,24.0,0.,24.0,0.,24.0,0.,24.0
1979-03-02 18:04:21.380 ,6,1,0.,24.0,0.,24.0,0.,24.0,0.,24.0
1979-03-02 18:04:45.380 ,5,1,0.,24.0,0.,24.0,0.,24.0,0.,24.0
1979-03-02 18:05:09.380 ,4,1,0.,24.0,0.,24.0,0.,24.0,0.,24.0
1979-03-02 18:05:33.380 ,3,1,0.,24.0,0.,24.0,0.,24.0,0.,24.0
1979-03-02 18:05:57.380 ,2,1,0.,24.0,0.,24.0,0.,24.0,0.,24.0
1979-03-02 18:06:21.380 ,1,1,0.,24.0,0.,24.0,0.,24.0,0.,24.0
1979-03-02 18:06:45.380 ,0,1,0.,24.0,0.,24.0,0.,24.0,0.,24.0
1979-03-02 18:07:09.380 ,0,1,0.,24.0,0.,24.0,0.,24.0,0.,24.0
1979-03-02 18:07:33.380 ,1,1,0.,24.0,0.,24.0,0.,24.0,0.,24.0
1979-03-02 18:07:57.380 ,2,1,0.,24.0,0.,24.0,0.,24.0,0.,24.0
1979-03-02 18:08:21.380 ,3,1,0.,24.0,0.,24.0,0.,24.0,0.,24.0
1979-03-02 18:08:45.380 ,4,1,0.,24.0,0.,24.0,0.,24.0,0.,24.0
1979-03-02 18:09:09.380 ,5,1,0.,24.0,0.,24.0,0.,24.0,0.,24.0
1979-03-02 18:09:33.380 ,6,1,0.,24.0,0.,24.0,0.,24.0,0.,24.0
1979-03-02 18:09:57.380 ,7,1,0.,24.0,0.,24.0,0.,24.0,0.,24.0
1979-03-02 18:10:21.380 ,7,1,0.,24.0,0.,24.0,0.,24.0,0.,24.0
1979-03-02 18:10:45.380 ,6,1,0.,24.0,0.,24.0,0.,24.0,0.,24.0
1979-03-02 18:11:09.380 ,5,1,0.,24.0,0.,24.0,0.,24.0,0.,24.0
1979-03-02 18:11:33.380 ,4,1,0.,24.0,0.,24.0,0.,24.0,0.,24.0
1979-03-02 18:11:57.380 ,3,1,0.,24.0,0.,24.0,0.,24.0,0.,24.0
1979-03-02 18:12:21.380 ,2,1,0.,24.0,0.,24.0,0.,24.0,0.,24.0
1979-03-02 18:12:45.380 ,1,1,0.,24.0,0.,24.0,0.,24.0,0.,24.0
1979-03-02 18:13:09.380 ,0,1,0.,24.0,0.,24.0,0.,24.0,0.,24.0
1979-03-02 18:13:33.380 ,0,1,0.,24.0,0.,24.0,0.,24.0,0.,24.0
1979-03-02 18:13:57.380 ,1,1,0.,24.0,0.,24.0,0.,24.0,0.,24.0
1979-03-02 18:14:21.380 ,2,1,0.,24.0,0.,24.0,0.,24.0,0.,24.0
1979-03-02 18:14:45.380 ,3,1,0.,24.0,0.,24.0,0.,24.0,0.,24.0
1979-03-02 18:15:09.380 ,4,1,0.,24.0,0.,24.0,0.,24.0,0.,24.0
1979-03-02 18:15:33.380 ,5,1,0.,24.0,0.,24.0,0.,24.0,0.,24.0
1979-03-02 18:15:57.380 ,6,1,0.,24.0,0.,24.0,0.,24.0,0.,24.0
1979-03-02 18:16:21.380 ,7,1,0.,24.0,0.,24.0,0.,24.0,0.,24.0
1979-03-02 18:16:45.380 ,7,1,0.,24.0,0.,24.0,0.,24.0,0.,24.0
1979-03-02 18:17:09.380 ,6,1,0.,24.0,0.,24.0,0.,24.0,0.,24.0
1979-03-02 18:17:33.380 ,5,1,0.,24.0,0.,24.0,0.,24.0,0.,24.0
1979-03-02 18:17:57.380 ,4,1,0.,24.0,0.,24.0,0.,24.0,0.,24.0
1979-03-02 18:18:21.380 ,3,1,0.,24.0,0.,24.0,0.,24.0,0.,24.0
1979-03-02 18:18:45.380 ,2,1,0.,24.0,0.,24.0,0.,24.0,0.,24.0
1979-03-02 18:19:09.380 ,1,1,0.,24.0,0.,24.0,0.,24.0,0.,24.0
1979-03-02 18:19:33.380 ,0,1,0.,24.0,0.,24.0,0.,24.0,0.,24.0
1979-03-02 18:19:57.380 ,0,1,0.,24.0,0.,24.0,0.,24.0,0.,24.0
1979-03-02 18:20:21.380 ,1,1,0.,24.0,0.,24.0,0.,24.0,0.,24.0
1979-03-02 18:20:45.380 ,2,1,0.,24.0,0.,24.0,0.,24.0,0.,24.0
1979-03-02 18:21:09.380 ,3,1,0.,24.0,0.,24.0,0.,24.0,0.,24.0
1979-03-02 18:21:33.380 ,4,1,0.,24.0,0.,24.0,0.,24.0,0.,24.0
1979-03-02 18:21:57.380 ,5,1,0.,24.0,0.,24.0,0.,24.0,0.,24.0
1979-03-02 18:22:21.380 ,6,1,0.,24.0,0.,24.0,0.,24.0,0.,24.0
1979-03-02 18:22:45.380 ,7,1,0.,24.0,0.,24.0,0.,24.0,0.,24.0
1979-03-02 18:23:09.380 ,7,1,0.,24.0,0.,24.0,0.,24.0,0.,24.0
1979-03-02 18:23:33.380 ,6,1,0.,24.0,0.,24.0,0.,24.0,0.,24.0
1979-03-02 18:23:57.380 ,5,1,0.,24.0,0.,24.0,0.,24.0,0.,24.0
1979-03-02 18:24:21.380 ,4,1,0.,24.0,0.,24.0,0.,24.0,0.,24.0
1979-03-02 18:24:45.380 ,3,1,0.,24.0,0.,24.0,0.,24.0,0.,24.0
1979-03-02 18:25:09.380 ,2,1,0.,24.0,0.,24.0,0.,24.0,0.,24.0
1979-03-02 18:25:33.380 ,1,1,0.,24.0,0.,24.0,0.,24.0,0.,24.0
1979-03-02 18:25:57.380 ,0,1,0.,24.0,0.,24.0,0.,24.0,0.,24.0
1979-03-02 18:26:21.380 ,0,1,0.,24.0,0.,24.0,0.,24.0,0.,24.0
1979-03-02 18:26:45.380 ,1,1,0.,24.0,0.,24.0,0.,24.0,0.,24.0
1979-03-02 18:27:09.380 ,2,1,0.,24.0,0.,24.0,0.,24.0,0.,24.0
1979-03-02 18:27:33.380 ,3,1,0.,24.0,0.,24.0,0.,24.0,0.,24.0
1979-03-02 18:27:57.380 ,4,1,0.,24.0,0.,24.0,0.,24.0,0.,24.0
1979-03-02 18:28:21.380 ,5,1,0.,24.0,0.,24.0,0.,24.0,0.,24.0
1979-03-02 18:28:45.380 ,6,1,0.,24.0,0.,24.0,0.,24.0,0.,24.0
1979-03-02 18:29:09.380 ,7,1,0.,24.0,0.,24.0,0.,24.0,0.,24.0
1979-03-02 18:29:33.380 ,7,1,0.,24.0,0.,24.0,0.,24.0,0.,24.0
1979-03-02 18:29:57.380 ,6,1,0.,24.0,0.,24.0,0.,24.0,0.,24.0
1979-03-02 18:30:21.380 ,5,1,0.,24.0,0.,24.0,0.,24.0,0.,24.0
1979-03-02 18:30:45.380 ,4,1,0.,24.0,0.,24.0,0.,24.0,0.,24.0
1979-03-02 18:31:09.380 ,3,1,0.,24.0,0.,24.0,0.,24.0,0.,24.0
1979-03-02 18:31:33.380 ,2,1,0.,24.0,0.,24.0,0.,24.0,0.,24.0
1979-03-02 18:31:57.380 ,1,1,0.,24.0,0.,24.0,0.,24.0,0.,24.0
1979-03-02 18:32:21.380 ,0,1,0.,24.0,0.,24.0,0.,24.0,0.,24.0
1979-03-02 18:32:45.380 ,0,1,0.,24.0,0.,24.0,0.,24.0,0.,24.0
1979-03-02 18:33:09.380 ,1,1,0.,24.0,0.,24.0,0.,24.0,0.,24.0
1979-03-02 18:33:33.380 ,2,1,0.,24.0,0.,24.0,0.,24.0,0.,24.0
1979-03-02 18:33:57.380 ,3,1,0.,24.0,0.,24.0,0.,24.0,0.,24.0
1979-03-02 18:34:21.380 ,4,1,0.,24.0,0.,24.0,0.,24.0,0.,24.0
1979-03-02 18:34:45.380 ,5,1,0.,24.0,0.,24.0,0.,24.0,0.,24.0
1979-03-02 18:35:09.380 ,6,1,0.,24.0,0.,24.0,0.,24.0,0.,24.0
1979-03-02 18:35:33.380 ,7,1,0.,24.0,0.,24.0,0.,24.0,0.,24.0
1979-03-02 18:35:57.380 ,7,1,0.,24.0,0.,24.0,0.,24.0,0.,24.0
1979-03-02 18:36:21.380 ,6,1,0.,24.0,0.,24.0,0.,24.0,0.,24.0
1979-03-02 18:36:45.380 ,5,1,0.,24.0,0.,24.0,0.,24.0,0.,24.0
1979-03-02 18:37:09.380 ,4,1,0.,24.0,0.,24.0,0.,24.0,0.,24.0
1979-03-02 18:37:33.380 ,3,1,0.,24.0,0.,24.0,0.,24.0,0.,24.0
1979-03-02 18:37:57.380 ,2,1,0.,24.0,0.,24.0,0.,24.0,0.,24.0
1979-03-02 18:38:21.380 ,1,1,0.,24.0,0.,24.0,0.,24.0,0.,24.0
1979-03-02 18:38:45.380 ,0,1,0.,24.0,0.,24.0,0.,24.0,0.,24.0
1979-03-02 18:39:09.380 ,0,1,0.,24.0,0.,24.0,0.,24.0,0.,24.0
1979-03-02 18:39:33.380 ,1,1,0.,24.0,0.,24.0,0.,24.0,0.,24.0
1979-03-02 18:39:57.380 ,2,1,0.,24.0,0.,24.0,0.,24.0,0.,24.0
1979-03-02 18:40:21.380 ,3,1,0.,24.0,0.,24.0,0.,24.0,0.,24.0
1979-03-02 18:40:45.380 ,4,1,0.,24.0,0.,24.0,0.,24.0,0.,24.0
1979-03-02 18:41:09.380 ,5,1,0.,24.0,0.,24.0,0.,24.0,0.,24.0
1979-03-02 18:41:33.380 ,6,1,0.,24.0,0.,24.0,0.,24.0,0.,24.0
1979-03-02 18:41:57.380 ,7,1,0.,24.0,0.,24.0,0.,24.0,0.,24.0
1979-03-02 18:42:21.380 ,7,1,0.,24.0,0.,24.0,0.,24.0,0.,24.0
1979-03-02 18:42:45.380 ,6,1,0.,24.0,0.,24.0,0.,24.0,0.,24.0
1979-03-02 18:43:09.380 ,5,1,0.,24.0,0.,24.0,0.,24.0,0.,24.0
1979-03-02 18:43:33.380 ,4,1,0.,24.0,0.,24.0,0.,24.0,0.,24.0
1979-03-02 18:43:57.380 ,3,1,0.,24.0,0.,24.0,0.,24.0,0.,24.0
1979-03-02 18:44:21.380 ,2,1,0.,24.0,0.,24.0,0.,24.0,0.,24.0
1979-03-02 18:44:45.380 ,1,1,0.,24.0,0.,24.0,0.,24.0,0.,24.0
1979-03-02 18:45:09.380 ,0,1,0.,24.0,0.,24.0,0.,24.0,0.,24.0
1979-03-02 18:45:33.380 ,0,1,0.,24.0,0.,24.0,0.,24.0,0.,24.0
1979-03-02 18:45:57.380 ,1,1,0.,24.0,0.,24.0,0.,24.0,0.,24.0
1979-03-02 18:46:21.380 ,2,1,0.,24.0,0.,24.0,0.,24.0,0.,24.0
1979-03-02 18:46:45.380 ,3,1,0.,24.0,0.,24.0,0.,24.0,0.,24.0
1979-03-02 18:47:09.380 ,4,1,0.,24.0,0.,24.0,0.,24.0,0.,24.0
1979-03-02 18:47:33.380 ,5,1,0.,24.0,0.,24.0,0.,24.0,0.,24.0
1979-03-02 18:47:57.380 ,6,1,0.,24.0,0.,24.0,0.,24.0,0.,24.0
1979-03-02 18:48:21.380 ,7,1,0.,24.0,0.,24.0,0.,24.0,0.,24.0
1979-03-02 18:48:45.380 ,7,1,0.,24.0,0.,24.0,0.,24.0,0.,24.0
1979-03-02 18:49:09.380 ,6,1,0.,24.0,0.,24.0,0.,24.0,0.,24.0
1979-03-02 18:49:33.380 ,5,1,0.,24.0,0.,24.0,0.,24.0,0.,24.0
1979-03-02 18:49:57.380 ,4,1,0.,24.0,0.,24.0,0.,24.0,0.,24.0
1979-03-02 18:50:21.380 ,3,1,0.,24.0,0.,24.0,0.,24.0,0.,24.0
1979-03-02 18:50:45.380 ,2,1,0.,24.0,0.,24.0,0.,24.0,0.,24.0
1979-03-02 18:51:09.380 ,1,1,0.,24.0,0.,24.0,0.,24.0,0.,24.0
1979-03-02 18:51:33.380 ,0,1,0.,24.0,0.,24.0,0.,24.0,0.,24.0
1979-03-02 18:51:57.380 ,0,1,0.,24.0,0.,24.0,0.,24.0,0.,24.0
1979-03-02 18:52:21.380 ,1,1,0.,24.0,0.,24.0,0.,24.0,0.,24.0
1979-03-02 18:52:45.380 ,2,1,0.,24.0,0.,24.0,0.,24.0,0.,24.0
1979-03-02 18:53:09.380 ,3,1,0.,24.0,0.,24.0,0.,24.0,0.,24.0
1979-03-02 18:53:33.380 ,4,1,0.,24.0,0.,24.0,0.,24.0,0.,24.0
1979-03-02 18:53:57.380 ,5,1,0.,24.0,0.,24.0,0.,24.0,0.,24.0
1979-03-02 18:54:21.380 ,6,1,0.,24.0,0.,24.0,0.,24.0,0.,24.0
1979-03-02 18:54:45.380 ,7,1,0.,24.0,0.,24.0,0.,24.0,0.,24.0
1979-03-02 18:55:09.380 ,7,1,0.,24.0,0.,24.0,0.,24.0,0.,24.0
1979-03-02 18:55:33.380 ,6,1,0.,24.0,0.,24.0,0.,24.0,0.,24.0
1979-03-02 18:55:57.380 ,5,1,0.,24.0,0.,24.0,0.,24.0,0.,24.0
1979-03-02 18:56:21.380 ,4,1,0.,24.0,0.,24.0,0.,24.0,0.,24.0
1979-03-02 18:56:45.380 ,3,1,0.,24.0,0.,24.0,0.,24.0,0.,24.0
1979-03-02 18:57:09.380 ,2,1,0.,24.0,0.,24.0,0.,24.0,0.,24.0
1979-03-02 18:57:33.380 ,1,1,0.,24.0,0.,24.0,0.,24.0,0.,24.0
1979-03-02 18:57:57.380 ,0,1,0.,24.0,0.,24.0,0.,24.0,0.,24.0
1979-03-02 18:58:21.380 ,0,1,0.,24.0,0.,24.0,0.,24.0,0.,24.0
1979-03-02 18:58:45.380 ,1,1,0.,24.0,0.,24.0,0.,24.0,0.,24.0
1979-03-02 18:59:09.380 ,2,1,0.,24.0,0.,24.0,0.,24.0,0.,24.0
1979-03-02 18:59:33.380 ,3,1,0.,24.0,0.,24.0,0.,24.0,0.,24.0
1979-03-02 18:59:57.380 ,4,1,0.,24.0,0.,24.0,0.,24.0,0.,24.0
1979-03-02 19:00:21.380 ,5,1,0.,24.0,0.,24.0,0.,24.0,0.,24.0
1979-03-02 19:00:45.380 ,6,1,0.,24.0,0.,24.0,0.,24.0,0.,24.0
1979-03-02 19:01:09.380 ,7,1,0.,24.0,0.,24.0,0.,24.0,0.,24.0
1979-03-02 19:01:33.380 ,7,1,0.,24.0,0.,24.0,0.,24.0,0.,24.0
1979-03-02 19:01:57.380 ,6,1,0.,24.0,0.,24.0,0.,24.0,0.,24.0
1979-03-02 19:02:21.380 ,5,1,0.,24.0,0.,24.0,0.,24.0,0.,24.0
1979-03-02 19:02:45.380 ,4,1,0.,24.0,0.,24.0,0.,24.0,0.,24.0
1979-03-02 19:03:09.380 ,3,1,0.,24.0,0.,24.0,0.,24.0,0.,24.0
1979-03-02 19:03:33.380 ,2,1,0.,24.0,0.,24.0,0.,24.0,0.,24.0
1979-03-02 19:03:57.380 ,1,1,0.,24.0,0.,24.0,0.,24.0,0.,24.0
1979-03-02 19:04:21.380 ,0,1,0.,24.0,0.,24.0,0.,24.0,0.,24.0
1979-03-02 19:04:45.380 ,0,1,0.,24.0,0.,24.0,0.,24.0,0.,24.0
1979-03-02 19:05:09.380 ,1,1,0.,24.0,0.,24.0,0.,24.0,0.,24.0
1979-03-02 19:05:33.380 ,2,1,0.,24.0,0.,24.0,0.,24.0,0.,24.0
1979-03-02 19:05:57.380 ,3,1,0.,24.0,0.,24.0,0.,24.0,0.,24.0
1979-03-02 19:06:21.380 ,4,1,0.,24.0,0.,24.0,0.,24.0,0.,24.0
1979-03-02 19:06:45.380 ,5,1,0.,24.0,0.,24.0,0.,24.0,0.,24.0
1979-03-02 19:07:09.380 ,6,1,0.,24.0,0.,24.0,0.,24.0,0.,24.0
1979-03-02 19:07:33.380 ,7,1,0.,24.0,0.,24.0,0.,24.0,0.,24.0
1979-03-02 19:07:57.380 ,7,1,0.,24.0,0.,24.0,0.,24.0,0.,24.0
1979-03-02 19:08:21.380 ,6,1,0.,24.0,0.,24.0,0.,24.0,0.,24.0
1979-03-02 19:08:45.380 ,5,1,0.,24.0,0.,24.0,0.,24.0,0.,24.0
1979-03-02 19:09:09.380 ,4,1,0.,24.0,0.,24.0,0.,24.0,0.,24.0
1979-03-02 19:09:33.380 ,3,1,0.,24.0,0.,24.0,0.,24.0,0.,24.0
1979-03-02 19:09:57.380 ,2,1,0.,24.0,0.,24.0,0.,24.0,0.,24.0
1979-03-02 19:10:21.380 ,1,1,0.,24.0,0.,24.0,0.,24.0,0.,24.0
1979-03-02 19:10:45.380 ,0,1,0.,24.0,0.,24.0,0.,24.0,0.,24.0
1979-03-02 19:11:09.380 ,0,1,0.,24.0,0.,24.0,0.,24.0,0.,24.0
1979-03-02 19:11:33.380 ,1,1,0.,24.0,0.,24.0,0.,24.0,0.,24.0
1979-03-02 19:11:57.380 ,2,1,0.,24.0,0.,24.0,0.,24.0,0.,24.0
1979-03-02 19:12:21.380 ,3,1,0.,24.0,0.,24.0,0.,24.0,0.,24.0
1979-03-02 19:12:45.380 ,4,1,0.,24.0,0.,24.0,0.,24.0,0.,24.0
1979-03-02 19:13:09.380 ,5,1,0.,24.0,0.,24.0,0.,24.0,0.,24.0
1979-03-02 19:13:33.380 ,6,1,0.,24.0,0.,24.0,0.,24.0,0.,24.0
1979-03-02 19:13:57.380 ,7,1,0.,24.0,0.,24.0,0.,24.0,0.,24.0
1979-03-02 19:14:21.380 ,7,1,0.,24.0,0.,24.0,0.,24.0,0.,24.0
1979-03-02 19:14:45.380 ,6,1,0.,24.0,0.,24.0,0.,24.0,0.,24.0
1979-03-02 19:15:09.380 ,5,1,0.,24.0,0.,24.0,0.,24.0,0.,24.0
1979-03-02 19:15:33.380 ,4,1,0.,24.0,0.,24.0,0.,24.0,0.,24.0
1979-03-02 19:15:57.380 ,3,1,0.,24.0,0.,24.0,0.,24.0,0.,24.0
1979-03-02 19:16:21.380 ,2,1,0.,24.0,0.,24.0,0.,24.0,0.,24.0
1979-03-02 19:16:45.380 ,1,1,0.,24.0,0.,24.0,0.,24.0,0.,24.0
1979-03-02 19:17:09.380 ,0,1,0.,24.0,0.,24.0,0.,24.0,0.,24.0
1979-03-02 19:17:33.380 ,0,1,0.,24.0,0.,24.0,0.,24.0,0.,24.0
1979-03-02 19:17:57.380 ,1,1,0.,24.0,0.,24.0,0.,24.0,0.,24.0
1979-03-02 19:18:21.380 ,2,1,0.,24.0,0.,24.0,0.,24.0,0.,24.0
1979-03-02 19:18:45.380 ,3,1,0.,24.0,0.,24.0,0.,24.0,0.,24.0
1979-03-02 19:19:09.380 ,4,1,0.,24.0,0.,24.0,0.,24.0,0.,24.0
1979-03-02 19:19:33.380 ,5,1,0.,24.0,0.,24.0,0.,24.0,0.,24.0
1979-03-02 19:19:57.380 ,6,1,0.,24.0,0.,24.0,0.,24.0,0.,24.0
1979-03-02 19:20:21.380 ,7,1,0.,24.0,0.,24.0,0.,24.0,0.,24.0
1979-03-02 19:20:45.380 ,7,1,0.,24.0,0.,24.0,0.,24.0,0.,24.0
1979-03-02 19:21:09.380 ,6,1,0.,24.0,0.,24.0,0.,24.0,0.,24.0
1979-03-02 19:21:33.380 ,5,1,0.,24.0,0.,24.0,0.,24.0,0.,24.0
1979-03-02 19:21:57.380 ,4,1,0.,24.0,0.,24.0,0.,24.0,0.,24.0
1979-03-02 19:22:21.380 ,3,1,0.,24.0,0.,24.0,0.,24.0,0.,24.0
1979-03-02 19:22:45.380 ,2,1,0.,24.0,0.,24.0,0.,24.0,0.,24.0
1979-03-02 19:23:09.380 ,0,0,0.,24.0,0.,24.0,0.,24.0,0.,24.0
1979-03-02 19:23:33.380 ,0,1,0.,24.0,0.,24.0,0.,24.0,0.,24.0
1979-03-02 19:23:57.380 ,0,1,0.,24.0,0.,24.0,0.,24.0,0.,24.0
1979-03-02 19:24:21.380 ,1,1,0.,24.0,0.,24.0,0.,24.0,0.,24.0
1979-03-02 19:24:45.380 ,2,1,0.,24.0,0.,24.0,0.,24.0,0.,24.0
1979-03-02 19:25:09.380 ,3,1,0.,24.0,0.,24.0,0.,24.0,0.,24.0
1979-03-02 19:25:33.380 ,4,1,0.,24.0,0.,24.0,0.,24.0,0.,24.0
1979-03-02 19:25:57.380 ,5,1,0.,24.0,0.,24.0,0.,24.0,0.,24.0
1979-03-02 19:26:21.380 ,6,1,0.,24.0,0.,24.0,0.,24.0,0.,24.0
1979-03-02 19:26:45.380 ,7,1,0.,24.0,0.,24.0,0.,24.0,0.,24.0
1979-03-02 19:27:09.380 ,7,1,0.,24.0,0.,24.0,0.,24.0,0.,24.0
1979-03-02 19:27:33.380 ,6,1,0.,24.0,0.,24.0,0.,24.0,0.,24.0
1979-03-02 19:27:57.380 ,5,1,0.,24.0,0.,24.0,0.,24.0,0.,24.0
1979-03-02 19:28:21.380 ,4,1,0.,24.0,0.,24.0,0.,24.0,0.,24.0
1979-03-02 19:28:45.380 ,3,1,0.,24.0,0.,24.0,0.,24.0,0.,24.0
1979-03-02 19:29:09.380 ,2,1,0.,24.0,0.,24.0,0.,24.0,0.,24.0
1979-03-02 19:29:33.380 ,1,1,0.,24.0,0.,24.0,0.,24.0,0.,24.0
1979-03-02 19:29:57.380 ,0,1,0.,24.0,0.,24.0,0.,24.0,0.,24.0
1979-03-02 19:30:21.380 ,0,1,0.,24.0,0.,24.0,0.,24.0,0.,24.0
1979-03-02 19:30:45.380 ,1,1,0.,24.0,0.,24.0,0.,24.0,0.,24.0
1979-03-02 19:31:09.380 ,2,1,0.,24.0,0.,24.0,0.,24.0,0.,24.0
1979-03-02 19:31:33.380 ,3,1,0.,24.0,0.,24.0,0.,24.0,0.,24.0
1979-03-02 19:31:57.380 ,4,1,0.,24.0,0.,24.0,0.,24.0,0.,24.0
1979-03-02 19:32:21.380 ,5,1,0.,24.0,0.,24.0,0.,24.0,0.,24.0
1979-03-02 19:32:45.380 ,6,1,0.,24.0,0.,24.0,0.,24.0,0.,24.0
1979-03-02 19:33:09.380 ,7,1,0.,24.0,0.,24.0,0.,24.0,0.,24.0
1979-03-02 19:33:33.380 ,7,1,0.,24.0,0.,24.0,0.,24.0,0.,24.0
1979-03-02 19:33:57.380 ,6,1,0.,24.0,0.,24.0,0.,24.0,0.,24.0
1979-03-02 19:34:21.380 ,5,1,0.,24.0,0.,24.0,0.,24.0,0.,24.0
1979-03-02 19:34:45.380 ,4,1,0.,24.0,0.,24.0,0.,24.0,0.,24.0
1979-03-02 19:35:09.380 ,3,1,0.,24.0,0.,24.0,0.,24.0,0.,24.0
1979-03-02 19:35:33.380 ,2,1,0.,24.0,0.,24.0,0.,24.0,0.,24.0
1979-03-02 19:35:57.380 ,1,1,0.,24.0,0.,24.0,0.,24.0,0.,24.0
1979-03-02 19:36:21.380 ,0,1,0.,24.0,0.,24.0,0.,24.0,0.,24.0
1979-03-02 19:36:45.380 ,0,1,0.,24.0,0.,24.0,0.,24.0,0.,24.0
1979-03-02 19:37:09.380 ,1,1,0.,24.0,0.,24.0,0.,24.0,0.,24.0
1979-03-02 19:37:33.380 ,2,1,0.,24.0,0.,24.0,0.,24.0,0.,24.0
1979-03-02 19:37:57.380 ,3,1,0.,24.0,0.,24.0,0.,24.0,0.,24.0
1979-03-02 19:38:21.380 ,4,1,0.,24.0,0.,24.0,0.,24.0,0.,24.0
1979-03-02 19:38:45.380 ,5,1,0.,24.0,0.,24.0,0.,24.0,0.,24.0
1979-03-02 19:39:09.380 ,6,1,0.,24.0,0.,24.0,0.,24.0,0.,24.0
1979-03-02 19:39:33.380 ,7,1,0.,24.0,0.,24.0,0.,24.0,0.,24.0
1979-03-02 19:39:57.380 ,7,1,0.,24.0,0.,24.0,0.,24.0,0.,24.0
1979-03-02 19:40:21.380 ,6,1,0.,24.0,0.,24.0,0.,24.0,0.,24.0
1979-03-02 19:40:45.380 ,5,1,0.,24.0,0.,24.0,0.,24.0,0.,24.0
1979-03-02 19:41:09.380 ,4,1,0.,24.0,0.,24.0,0.,24.0,0.,24.0
1979-03-02 19:41:33.380 ,3,1,0.,24.0,0.,24.0,0.,24.0,0.,24.0
1979-03-02 19:41:57.380 ,2,1,0.,24.0,0.,24.0,0.,24.0,0.,24.0
1979-03-02 19:42:21.380 ,1,1,0.,24.0,0.,24.0,0.,24.0,0.,24.0
1979-03-02 19:42:45.380 ,0,1,0.,24.0,0.,24.0,0.,24.0,0.,24.0
1979-03-02 19:43:09.380 ,0,1,0.,24.0,0.,24.0,0.,24.0,0.,24.0
1979-03-02 19:43:33.380 ,1,1,0.,24.0,0.,24.0,0.,24.0,0.,24.0
1979-03-02 19:43:57.380 ,2,1,0.,24.0,0.,24.0,0.,24.0,0.,24.0
1979-03-02 19:44:21.380 ,3,1,0.,24.0,0.,24.0,0.,24.0,0.,24.0
1979-03-02 19:44:45.380 ,4,1,0.,24.0,0.,24.0,0.,24.0,0.,24.0
1979-03-02 19:45:09.380 ,5,1,0.,24.0,0.,24.0,0.,24.0,0.,24.0
1979-03-02 19:45:33.380 ,6,1,0.,24.0,0.,24.0,0.,24.0,0.,24.0
1979-03-02 19:45:57.380 ,7,1,0.,24.0,0.,24.0,0.,24.0,0.,24.0
1979-03-02 19:46:21.380 ,7,1,0.,24.0,0.,24.0,0.,24.0,0.,24.0
1979-03-02 19:46:45.380 ,6,1,0.,24.0,0.,24.0,0.,24.0,0.,24.0
1979-03-02 19:47:09.380 ,5,1,0.,24.0,0.,24.0,0.,24.0,0.,24.0
1979-03-02 19:47:33.380 ,4,1,0.,24.0,0.,24.0,0.,24.0,0.,24.0
1979-03-02 19:47:57.380 ,3,1,0.,24.0,0.,24.0,0.,24.0,0.,24.0
1979-03-02 19:48:21.380 ,2,1,0.,24.0,0.,24.0,0.,24.0,0.,24.0
1979-03-02 19:48:45.380 ,1,1,0.,24.0,0.,24.0,0.,24.0,0.,24.0
1979-03-02 19:49:09.380 ,0,1,0.,24.0,0.,24.0,0.,24.0,0.,24.0
1979-03-02 19:49:33.380 ,0,1,0.,24.0,0.,24.0,0.,24.0,0.,24.0
1979-03-02 19:49:57.380 ,1,1,0.,24.0,0.,24.0,0.,24.0,0.,24.0
1979-03-02 19:50:21.380 ,2,1,0.,24.0,0.,24.0,0.,24.0,0.,24.0
1979-03-02 19:50:45.380 ,3,1,0.,24.0,0.,24.0,0.,24.0,0.,24.0
1979-03-02 19:51:09.380 ,4,1,0.,24.0,0.,24.0,0.,24.0,0.,24.0
1979-03-02 19:51:33.380 ,5,1,0.,24.0,0.,24.0,0.,24.0,0.,24.0
1979-03-02 19:51:57.380 ,6,1,0.,24.0,0.,24.0,0.,24.0,0.,24.0
1979-03-02 19:52:21.380 ,7,1,0.,24.0,0.,24.0,0.,24.0,0.,24.0
1979-03-02 19:52:45.380 ,7,1,0.,24.0,0.,24.0,0.,24.0,0.,24.0
1979-03-02 19:53:09.380 ,6,1,0.,24.0,0.,24.0,0.,24.0,0.,24.0
1979-03-02 19:53:33.380 ,5,1,0.,24.0,0.,24.0,0.,24.0,0.,24.0
1979-03-02 19:53:57.380 ,4,1,0.,24.0,0.,24.0,0.,24.0,0.,24.0
1979-03-02 19:54:21.380 ,3,1,0.,24.0,0.,24.0,0.,24.0,0.,24.0
1979-03-02 19:54:45.380 ,2,1,0.,24.0,0.,24.0,0.,24.0,0.,24.0
1979-03-02 19:55:09.380 ,1,1,0.,24.0,0.,24.0,0.,24.0,0.,24.0
1979-03-02 19:55:33.380 ,0,1,0.,24.0,0.,24.0,0.,24.0,0.,24.0
1979-03-02 19:55:57.380 ,0,1,0.,24.0,0.,24.0,0.,24.0,0.,24.0
1979-03-02 19:56:21.380 ,1,1,0.,24.0,0.,24.0,0.,24.0,0.,24.0
1979-03-02 19:56:45.380 ,2,1,0.,24.0,0.,24.0,0.,24.0,0.,24.0
1979-03-02 19:57:09.380 ,3,1,0.,24.0,0.,24.0,0.,24.0,0.,24.0
1979-03-02 19:57:33.380 ,4,1,0.,24.0,0.,24.0,0.,24.0,0.,24.0
1979-03-02 19:57:57.380 ,5,1,0.,24.0,0.,24.0,0.,24.0,0.,24.0
1979-03-02 19:58:21.380 ,6,1,0.,24.0,0.,24.0,0.,24.0,0.,24.0
1979-03-02 19:58:45.380 ,7,1,0.,24.0,0.,24.0,0.,24.0,0.,24.0
1979-03-02 19:59:09.380 ,7,1,0.,24.0,0.,24.0,0.,24.0,0.,24.0
1979-03-02 19:59:33.380 ,6,1,0.,24.0,0.,24.0,0.,24.0,0.,24.0
1979-03-02 19:59:57.380 ,5,1,0.,24.0,0.,24.0,0.,24.0,0.,24.0
1979-03-02 20:00:21.380 ,4,1,0.,24.0,0.,24.0,0.,24.0,0.,24.0
1979-03-02 20:00:45.380 ,3,1,0.,24.0,0.,24.0,0.,24.0,0.,24.0
1979-03-02 20:01:09.380 ,2,1,0.,24.0,0.,24.0,0.,24.0,0.,24.0
1979-03-02 20:01:33.380 ,1,1,0.,24.0,0.,24.0,0.,24.0,0.,24.0
1979-03-02 20:01:57.380 ,0,1,0.,24.0,0.,24.0,0.,24.0,0.,24.0
1979-03-02 20:02:21.380 ,0,1,0.,24.0,0.,24.0,0.,24.0,0.,24.0
1979-03-02 20:02:45.380 ,1,1,0.,24.0,0.,24.0,0.,24.0,0.,24.0
1979-03-02 20:03:09.380 ,2,1,0.,24.0,0.,24.0,0.,24.0,0.,24.0
1979-03-02 20:03:33.380 ,3,1,0.,24.0,0.,24.0,0.,24.0,0.,24.0
1979-03-02 20:03:57.380 ,4,1,0.,24.0,0.,24.0,0.,24.0,0.,24.0
1979-03-02 20:04:21.380 ,5,1,0.,24.0,0.,24.0,0.,24.0,0.,24.0
1979-03-02 20:04:45.380 ,6,1,0.,24.0,0.,24.0,0.,24.0,0.,24.0
1979-03-02 20:05:09.380 ,7,1,0.,24.0,0.,24.0,0.,24.0,0.,24.0
1979-03-02 20:05:33.380 ,7,1,0.,24.0,0.,24.0,0.,24.0,0.,24.0
1979-03-02 20:05:57.380 ,6,1,0.,24.0,0.,24.0,0.,24.0,0.,24.0
1979-03-02 20:06:21.380 ,5,1,0.,24.0,0.,24.0,0.,24.0,0.,24.0
1979-03-02 20:06:45.380 ,4,1,0.,24.0,0.,24.0,0.,24.0,0.,24.0
1979-03-02 20:07:09.380 ,3,1,0.,24.0,0.,24.0,0.,24.0,0.,24.0
1979-03-02 20:07:33.380 ,2,1,0.,24.0,0.,24.0,0.,24.0,0.,24.0
1979-03-02 20:07:57.380 ,1,1,0.,24.0,0.,24.0,0.,24.0,0.,24.0
1979-03-02 20:08:21.380 ,0,1,0.,24.0,0.,24.0,0.,24.0,0.,24.0
1979-03-02 20:08:45.380 ,0,1,0.,24.0,0.,24.0,0.,24.0,0.,24.0
1979-03-02 20:09:09.380 ,1,1,0.,24.0,0.,24.0,0.,24.0,0.,24.0
1979-03-02 20:09:33.380 ,2,1,0.,24.0,0.,24.0,0.,24.0,0.,24.0
1979-03-02 20:09:57.380 ,0,0,0.,24.0,0.,24.0,0.,24.0,0.,24.0
1979-03-02 20:10:21.380 ,0,0,0.,24.0,0.,24.0,0.,24.0,0.,24.0
1979-03-02 20:10:45.380 ,5,1,0.,24.0,0.,24.0,0.,24.0,0.,24.0
1979-03-02 20:11:09.380 ,6,1,0.,24.0,0.,24.0,0.,24.0,0.,24.0
1979-03-02 20:11:33.380 ,7,1,0.,24.0,0.,24.0,0.,24.0,0.,24.0
1979-03-02 20:11:57.380 ,7,1,0.,24.0,0.,24.0,0.,24.0,0.,24.0
1979-03-02 20:12:21.380 ,6,1,0.,24.0,0.,24.0,0.,24.0,0.,24.0
1979-03-02 20:12:45.380 ,5,1,0.,24.0,0.,24.0,0.,24.0,0.,24.0
1979-03-02 20:13:09.380 ,4,1,0.,24.0,0.,24.0,0.,24.0,0.,24.0
1979-03-02 20:13:33.380 ,3,1,0.,24.0,0.,24.0,0.,24.0,0.,24.0
1979-03-02 20:13:57.380 ,2,1,0.,24.0,0.,24.0,0.,24.0,0.,24.0
1979-03-02 20:14:21.380 ,1,1,0.,24.0,0.,24.0,0.,24.0,0.,24.0
1979-03-02 20:14:45.380 ,0,1,0.,24.0,0.,24.0,0.,24.0,0.,24.0
1979-03-02 20:15:09.380 ,0,1,0.,24.0,0.,24.0,0.,24.0,0.,24.0
1979-03-02 20:15:33.380 ,1,1,0.,24.0,0.,24.0,0.,24.0,0.,24.0
1979-03-02 20:15:57.380 ,2,1,0.,24.0,0.,24.0,0.,24.0,0.,24.0
1979-03-02 20:16:21.380 ,3,1,0.,24.0,0.,24.0,0.,24.0,0.,24.0
1979-03-02 20:16:45.380 ,4,1,0.,24.0,0.,24.0,0.,24.0,0.,24.0
1979-03-02 20:17:09.380 ,5,1,0.,24.0,0.,24.0,0.,24.0,0.,24.0
1979-03-02 20:17:33.380 ,6,1,0.,24.0,0.,24.0,0.,24.0,0.,24.0
1979-03-02 20:17:57.380 ,7,1,0.,24.0,0.,24.0,0.,24.0,0.,24.0
1979-03-02 20:18:21.380 ,7,1,0.,24.0,0.,24.0,0.,24.0,0.,24.0
1979-03-02 20:18:45.380 ,6,1,0.,24.0,0.,24.0,0.,24.0,0.,24.0
1979-03-02 20:19:09.380 ,5,1,0.,24.0,0.,24.0,0.,24.0,0.,24.0
1979-03-02 20:19:33.380 ,4,1,0.,24.0,0.,24.0,0.,24.0,0.,24.0
1979-03-02 20:19:57.380 ,3,1,0.,24.0,0.,24.0,0.,24.0,0.,24.0
1979-03-02 20:20:21.380 ,2,1,0.,24.0,0.,24.0,0.,24.0,0.,24.0
1979-03-02 20:20:45.380 ,1,1,0.,24.0,0.,24.0,0.,24.0,0.,24.0
1979-03-02 20:21:09.380 ,0,1,0.,24.0,0.,24.0,0.,24.0,0.,24.0
1979-03-02 20:21:33.380 ,0,1,0.,24.0,0.,24.0,0.,24.0,0.,24.0
1979-03-02 20:21:57.380 ,1,1,0.,24.0,0.,24.0,0.,24.0,0.,24.0
1979-03-02 20:22:21.380 ,2,1,0.,24.0,0.,24.0,0.,24.0,0.,24.0
1979-03-02 20:22:45.380 ,3,1,0.,24.0,0.,24.0,0.,24.0,0.,24.0
1979-03-02 20:23:09.380 ,4,1,0.,24.0,0.,24.0,0.,24.0,0.,24.0
1979-03-02 20:23:33.380 ,5,1,0.,24.0,0.,24.0,0.,24.0,0.,24.0
1979-03-02 20:23:57.380 ,6,1,0.,24.0,0.,24.0,0.,24.0,0.,24.0
1979-03-02 20:24:21.380 ,7,1,0.,24.0,0.,24.0,0.,24.0,0.,24.0
1979-03-02 20:24:45.380 ,7,1,0.,24.0,0.,24.0,0.,24.0,0.,24.0
1979-03-02 20:25:09.380 ,6,1,0.,24.0,0.,24.0,0.,24.0,0.,24.0
1979-03-02 20:25:33.380 ,5,1,0.,24.0,0.,24.0,0.,24.0,0.,24.0
1979-03-02 20:25:57.380 ,4,1,0.,24.0,0.,24.0,0.,24.0,0.,24.0
1979-03-02 20:26:21.380 ,3,1,0.,24.0,0.,24.0,0.,24.0,0.,24.0
1979-03-02 20:26:45.380 ,2,1,0.,24.0,0.,24.0,0.,24.0,0.,24.0
1979-03-02 20:27:09.380 ,1,1,0.,24.0,0.,24.0,0.,24.0,0.,24.0
1979-03-02 20:27:33.380 ,0,1,0.,24.0,0.,24.0,0.,24.0,0.,24.0
1979-03-02 20:27:57.380 ,0,1,0.,24.0,0.,24.0,0.,24.0,0.,24.0
1979-03-02 20:28:21.380 ,1,1,0.,24.0,0.,24.0,0.,24.0,0.,24.0
1979-03-02 20:28:45.380 ,2,1,0.,24.0,0.,24.0,0.,24.0,0.,24.0
1979-03-02 20:29:09.380 ,3,1,0.,24.0,0.,24.0,0.,24.0,0.,24.0
1979-03-02 20:29:33.380 ,4,1,0.,24.0,0.,24.0,0.,24.0,0.,24.0
1979-03-02 20:29:57.380 ,5,1,0.,24.0,0.,24.0,0.,24.0,0.,24.0
1979-03-02 20:30:21.380 ,6,1,0.,24.0,0.,24.0,0.,24.0,0.,24.0
1979-03-02 20:30:45.380 ,7,1,0.,24.0,0.,24.0,0.,24.0,0.,24.0
1979-03-02 20:31:09.380 ,7,1,0.,24.0,0.,24.0,0.,24.0,0.,24.0
1979-03-02 20:31:33.380 ,6,1,0.,24.0,0.,24.0,0.,24.0,0.,24.0
1979-03-02 20:31:57.380 ,5,1,0.,24.0,0.,24.0,0.,24.0,0.,24.0
1979-03-02 20:32:21.380 ,4,1,0.,24.0,0.,24.0,0.,24.0,0.,24.0
1979-03-02 20:32:45.380 ,3,1,0.,24.0,0.,24.0,0.,24.0,0.,24.0
1979-03-02 20:33:09.380 ,2,1,0.,24.0,0.,24.0,0.,24.0,0.,24.0
1979-03-02 20:33:33.380 ,1,1,0.,24.0,0.,24.0,0.,24.0,0.,24.0
1979-03-02 20:33:57.380 ,0,1,0.,24.0,0.,24.0,0.,24.0,0.,24.0
1979-03-02 20:34:21.380 ,0,1,0.,24.0,0.,24.0,0.,24.0,0.,24.0